Time,TemperatureF,DewpointF,PressureIn,WindDirection,WindDirectionDegrees,WindSpeedMPH,WindSpeedGustMPH,Humidity,HourlyPrecipIn,Conditions,Clouds,dailyrainin,SolarRadiationWatts/m^2,SoftwareType,DateUTC
2013-08-29 00:02:00,69.5,66.4,30.01,ENE,67,0.0,0.0,90,0.00,,,0.00,0,Wunderground v.1.15,2013-08-29 05:02:00,
2013-08-29 00:07:00,69.3,66.2,30.01,ENE,67,0.0,0.0,90,0.00,,,0.00,0,Wunderground v.1.15,2013-08-29 05:07:00,
2013-08-29 00:12:00,69.0,65.9,30.01,ENE,67,0.0,0.0,90,0.00,,,0.00,0,Wunderground v.1.15,2013-08-29 05:12:00,
2013-08-29 00:18:00,68.8,66.1,30.01,ENE,67,0.0,0.0,91,0.00,,,0.00,0,Wunderground v.1.15,2013-08-29 05:18:00,
2013-08-29 00:23:00,68.6,65.9,30.01,ENE,67,0.0,0.0,91,0.00,,,0.00,0,Wunderground v.1.15,2013-08-29 05:23:00,
2013-08-29 00:28:00,68.4,66.0,30.01,ENE,67,0.0,0.0,92,0.00,,,0.00,0,Wunderground v.1.15,2013-08-29 05:28:00,
2013-08-29 00:33:00,68.2,65.8,30.01,ENE,67,0.0,0.0,92,0.00,,,0.00,0,Wunderground v.1.15,2013-08-29 05:33:00,
2013-08-29 00:39:00,68.0,65.6,30.01,ENE,67,0.0,0.0,92,0.00,,,0.00,0,Wunderground v.1.15,2013-08-29 05:39:00,
2013-08-29 00:44:00,67.8,65.4,30.01,ENE,67,0.0,0.0,92,0.00,,,0.00,0,Wunderground v.1.15,2013-08-29 05:44:00,
2013-08-29 00:49:00,67.6,65.2,30.01,ENE,67,0.0,0.0,92,0.00,,,0.00,0,Wunderground v.1.15,2013-08-29 05:49:00,
2013-08-29 00:55:00,67.3,64.9,30.01,ENE,67,0.0,0.0,92,0.00,,,0.00,0,Wunderground v.1.15,2013-08-29 05:55:00,
2013-08-29 01:01:00,67.1,64.7,30.01,ENE,67,0.0,0.0,92,0.00,,,0.00,0,Wunderground v.1.15,2013-08-29 06:01:00,
2013-08-29 01:07:00,66.8,64.4,30.01,ENE,67,0.0,0.0,92,0.00,,,0.00,0,Wunderground v.1.15,2013-08-29 06:07:00,
2013-08-29 01:12:00,66.7,64.6,30.02,ENE,67,0.0,0.0,93,0.00,,,0.00,0,Wunderground v.1.15,2013-08-29 06:12:00,
2013-08-29 01:17:00,66.6,64.5,30.02,ENE,67,0.0,0.0,93,0.00,,,0.00,0,Wunderground v.1.15,2013-08-29 06:17:00,
2013-08-29 01:22:00,66.5,64.4,30.02,ENE,67,0.0,0.0,93,0.00,,,0.00,0,Wunderground v.1.15,2013-08-29 06:22:00,
2013-08-29 01:28:00,66.4,64.3,30.01,ENE,67,0.0,0.0,93,0.00,,,0.00,0,Wunderground v.1.15,2013-08-29 06:28:00,
2013-08-29 01:33:00,66.3,64.2,30.01,ENE,67,0.0,0.0,93,0.00,,,0.00,0,Wunderground v.1.15,2013-08-29 06:33:00,
2013-08-29 01:38:00,66.1,64.0,30.01,ENE,67,0.0,0.0,93,0.00,,,0.00,0,Wunderground v.1.15,2013-08-29 06:38:00,
2013-08-29 01:44:00,66.1,64.0,30.01,ENE,67,0.0,0.0,93,0.00,,,0.00,0,Wunderground v.1.15,2013-08-29 06:44:00,
2013-08-29 01:49:00,65.9,63.8,30.01,ENE,67,0.0,0.0,93,0.00,,,0.00,0,Wunderground v.1.15,2013-08-29 06:49:00,
2013-08-29 01:54:00,65.8,63.7,30.01,ENE,67,0.0,0.0,93,0.00,,,0.00,0,Wunderground v.1.15,2013-08-29 06:54:00,
2013-08-29 01:59:00,65.7,63.6,30.01,ENE,67,0.0,0.0,93,0.00,,,0.00,0,Wunderground v.1.15,2013-08-29 06:59:00,
2013-08-29 02:04:00,65.7,63.9,30.01,ENE,67,0.0,0.0,94,0.00,,,0.00,0,Wunderground v.1.15,2013-08-29 07:04:00,
2013-08-29 02:09:00,65.7,63.9,30.01,ENE,67,0.0,0.0,94,0.00,,,0.00,0,Wunderground v.1.15,2013-08-29 07:09:00,
2013-08-29 02:14:00,65.7,63.9,30.01,ENE,67,0.0,0.0,94,0.00,,,0.00,0,Wunderground v.1.15,2013-08-29 07:14:00,
2013-08-29 02:19:00,65.7,63.9,30.01,ENE,67,0.0,0.0,94,0.00,,,0.00,0,Wunderground v.1.15,2013-08-29 07:19:00,
2013-08-29 02:24:00,65.7,63.9,30.01,ENE,67,0.0,0.0,94,0.00,,,0.00,0,Wunderground v.1.15,2013-08-29 07:24:00,
2013-08-29 02:29:00,65.8,64.0,30.01,ENE,67,0.0,0.0,94,0.00,,,0.00,0,Wunderground v.1.15,2013-08-29 07:29:00,
2013-08-29 02:34:00,65.8,64.0,30.02,ENE,67,0.0,0.0,94,0.00,,,0.00,0,Wunderground v.1.15,2013-08-29 07:34:00,
2013-08-29 02:39:00,65.7,63.9,30.02,ENE,67,0.0,0.0,94,0.00,,,0.00,0,Wunderground v.1.15,2013-08-29 07:39:00,
2013-08-29 02:44:00,65.6,63.8,30.01,ENE,67,0.0,0.0,94,0.00,,,0.00,0,Wunderground v.1.15,2013-08-29 07:44:00,
2013-08-29 02:49:00,65.6,63.8,30.01,ENE,67,0.0,0.0,94,0.00,,,0.00,0,Wunderground v.1.15,2013-08-29 07:49:00,
2013-08-29 02:54:00,65.5,63.7,30.01,ENE,67,0.0,0.0,94,0.00,,,0.00,0,Wunderground v.1.15,2013-08-29 07:54:00,
2013-08-29 02:59:00,65.3,63.5,30.01,ENE,67,0.0,0.0,94,0.00,,,0.00,0,Wunderground v.1.15,2013-08-29 07:59:00,
2013-08-29 03:04:00,65.2,63.4,30.01,ENE,67,0.0,0.0,94,0.00,,,0.00,0,Wunderground v.1.15,2013-08-29 08:04:00,
2013-08-29 03:09:00,65.2,63.4,30.01,ENE,67,0.0,0.0,94,0.00,,,0.00,0,Wunderground v.1.15,2013-08-29 08:09:00,
2013-08-29 03:14:00,65.1,63.3,30.01,ENE,67,0.0,0.0,94,0.00,,,0.00,0,Wunderground v.1.15,2013-08-29 08:14:00,
2013-08-29 03:19:00,65.0,63.2,30.01,ENE,67,0.0,0.0,94,0.00,,,0.00,0,Wunderground v.1.15,2013-08-29 08:19:00,
2013-08-29 03:25:00,64.9,63.1,30.02,ENE,67,0.0,0.0,94,0.00,,,0.00,0,Wunderground v.1.15,2013-08-29 08:25:00,
2013-08-29 03:30:00,64.8,63.0,30.02,ENE,67,0.0,0.0,94,0.00,,,0.00,0,Wunderground v.1.15,2013-08-29 08:30:00,
2013-08-29 03:35:00,64.6,62.8,30.02,ENE,67,0.0,0.0,94,0.00,,,0.00,0,Wunderground v.1.15,2013-08-29 08:35:00,
2013-08-29 03:40:00,64.4,62.6,30.02,ENE,67,0.0,0.0,94,0.00,,,0.00,0,Wunderground v.1.15,2013-08-29 08:40:00,
2013-08-29 03:45:00,64.2,62.4,30.02,ENE,67,0.0,0.0,94,0.00,,,0.00,0,Wunderground v.1.15,2013-08-29 08:45:00,
2013-08-29 03:50:00,64.2,62.7,30.02,ENE,67,0.0,0.0,95,0.00,,,0.00,0,Wunderground v.1.15,2013-08-29 08:50:00,
2013-08-29 03:55:00,64.0,62.2,30.02,ENE,67,0.0,0.0,94,0.00,,,0.00,0,Wunderground v.1.15,2013-08-29 08:55:00,
2013-08-29 04:00:00,63.9,62.1,30.02,ENE,67,0.0,0.0,94,0.00,,,0.00,0,Wunderground v.1.15,2013-08-29 09:00:00,
2013-08-29 04:05:00,63.8,62.0,30.02,ENE,67,0.0,0.0,94,0.00,,,0.00,0,Wunderground v.1.15,2013-08-29 09:05:00,
2013-08-29 04:10:00,63.7,61.9,30.02,ENE,67,0.0,0.0,94,0.00,,,0.00,0,Wunderground v.1.15,2013-08-29 09:10:00,
2013-08-29 04:15:00,63.6,62.1,30.01,ENE,67,0.0,0.0,95,0.00,,,0.00,0,Wunderground v.1.15,2013-08-29 09:15:00,
2013-08-29 04:20:00,63.4,61.6,30.01,ENE,67,0.0,0.0,94,0.00,,,0.00,0,Wunderground v.1.15,2013-08-29 09:20:00,
2013-08-29 04:25:00,63.2,61.4,30.02,ENE,67,0.0,0.0,94,0.00,,,0.00,0,Wunderground v.1.15,2013-08-29 09:25:00,
2013-08-29 04:30:00,63.1,61.3,30.01,ENE,67,0.0,0.0,94,0.00,,,0.00,0,Wunderground v.1.15,2013-08-29 09:30:00,
2013-08-29 04:35:00,63.0,61.5,30.01,ENE,67,0.0,0.0,95,0.00,,,0.00,0,Wunderground v.1.15,2013-08-29 09:35:00,
2013-08-29 04:40:00,63.1,61.6,30.02,ENE,67,0.0,0.0,95,0.00,,,0.00,0,Wunderground v.1.15,2013-08-29 09:40:00,
2013-08-29 04:45:00,63.0,61.5,30.01,ENE,67,0.0,0.0,95,0.00,,,0.00,0,Wunderground v.1.15,2013-08-29 09:45:00,
2013-08-29 04:50:00,62.9,61.4,30.01,ENE,67,0.0,0.0,95,0.00,,,0.00,0,Wunderground v.1.15,2013-08-29 09:50:00,
2013-08-29 04:55:00,62.8,61.3,30.01,ENE,67,0.0,0.0,95,0.00,,,0.00,0,Wunderground v.1.15,2013-08-29 09:55:00,
2013-08-29 05:00:00,62.7,61.2,30.01,ENE,67,0.0,0.0,95,0.00,,,0.00,0,Wunderground v.1.15,2013-08-29 10:00:00,
2013-08-29 05:05:00,62.6,61.1,30.02,ENE,67,0.0,0.0,95,0.00,,,0.00,0,Wunderground v.1.15,2013-08-29 10:05:00,
2013-08-29 05:10:00,62.5,61.0,30.02,ENE,67,0.0,0.0,95,0.00,,,0.00,0,Wunderground v.1.15,2013-08-29 10:10:00,
2013-08-29 05:15:00,62.4,60.9,30.02,ENE,67,0.0,0.0,95,0.00,,,0.00,0,Wunderground v.1.15,2013-08-29 10:15:00,
2013-08-29 05:20:00,62.4,60.9,30.02,ENE,67,0.0,0.0,95,0.00,,,0.00,0,Wunderground v.1.15,2013-08-29 10:20:00,
2013-08-29 05:25:00,62.4,60.9,30.02,ENE,67,0.0,0.0,95,0.00,,,0.00,0,Wunderground v.1.15,2013-08-29 10:25:00,
2013-08-29 05:30:00,62.5,61.3,30.03,ENE,67,0.0,0.0,96,0.00,,,0.00,0,Wunderground v.1.15,2013-08-29 10:30:00,
2013-08-29 05:35:00,62.6,61.4,30.02,ENE,67,0.0,0.0,96,0.00,,,0.00,0,Wunderground v.1.15,2013-08-29 10:35:00,
2013-08-29 05:40:00,62.6,61.1,30.02,ENE,67,0.0,0.0,95,0.00,,,0.00,0,Wunderground v.1.15,2013-08-29 10:40:00,
2013-08-29 05:45:00,62.5,61.0,30.02,ENE,67,0.0,0.0,95,0.00,,,0.00,0,Wunderground v.1.15,2013-08-29 10:45:00,
2013-08-29 05:50:00,62.4,60.9,30.03,ENE,67,0.0,0.0,95,0.00,,,0.00,0,Wunderground v.1.15,2013-08-29 10:50:00,
2013-08-29 05:55:00,62.4,60.9,30.03,ENE,67,0.0,0.0,95,0.00,,,0.00,0,Wunderground v.1.15,2013-08-29 10:55:00,
2013-08-29 06:01:00,62.3,60.8,30.03,ENE,67,0.0,0.0,95,0.00,,,0.00,0,Wunderground v.1.15,2013-08-29 11:01:00,
2013-08-29 06:06:00,62.2,60.8,30.03,ENE,67,0.0,0.0,95,0.00,,,0.00,0,Wunderground v.1.15,2013-08-29 11:06:00,
2013-08-29 06:11:00,62.1,60.7,30.04,ENE,67,0.0,0.0,95,0.00,,,0.00,0,Wunderground v.1.15,2013-08-29 11:11:00,
2013-08-29 06:16:00,62.1,60.7,30.04,ENE,67,0.0,0.0,95,0.00,,,0.00,0,Wunderground v.1.15,2013-08-29 11:16:00,
2013-08-29 06:20:00,61.9,60.5,30.04,ENE,67,0.0,0.0,95,0.00,,,0.00,5,Wunderground v.1.15,2013-08-29 11:20:00,
2013-08-29 06:25:00,61.8,60.4,30.04,ENE,67,0.0,0.0,95,0.00,,,0.00,7,Wunderground v.1.15,2013-08-29 11:25:00,
2013-08-29 06:30:00,61.8,60.4,30.04,ENE,67,0.0,0.0,95,0.00,,,0.00,11,Wunderground v.1.15,2013-08-29 11:30:00,
2013-08-29 06:35:00,61.7,60.3,30.04,ENE,67,0.0,0.0,95,0.00,,,0.00,16,Wunderground v.1.15,2013-08-29 11:35:00,
2013-08-29 06:40:00,61.7,60.3,30.04,ENE,67,0.0,0.0,95,0.00,,,0.00,23,Wunderground v.1.15,2013-08-29 11:40:00,
2013-08-29 06:45:00,61.8,60.6,30.04,ENE,67,0.0,0.0,96,0.00,,,0.00,32,Wunderground v.1.15,2013-08-29 11:45:00,
2013-08-29 06:50:00,61.9,60.7,30.04,ENE,67,0.0,0.0,96,0.00,,,0.00,40,Wunderground v.1.15,2013-08-29 11:50:00,
2013-08-29 06:55:00,62.1,60.9,30.04,ENE,67,0.0,0.0,96,0.00,,,0.00,51,Wunderground v.1.15,2013-08-29 11:55:00,
2013-08-29 07:00:00,62.3,61.1,30.04,ENE,67,0.0,0.0,96,0.00,,,0.00,62,Wunderground v.1.15,2013-08-29 12:00:00,
2013-08-29 07:05:00,62.7,61.8,30.04,ENE,67,0.0,0.0,97,0.00,,,0.00,74,Wunderground v.1.15,2013-08-29 12:05:00,
2013-08-29 07:10:00,62.8,61.6,30.04,ENE,67,0.0,0.0,96,0.00,,,0.00,86,Wunderground v.1.15,2013-08-29 12:10:00,
2013-08-29 07:15:00,63.0,61.8,30.04,ENE,67,0.0,0.0,96,0.00,,,0.00,98,Wunderground v.1.15,2013-08-29 12:15:00,
2013-08-29 07:20:00,63.4,62.5,30.04,ENE,67,0.0,0.0,97,0.00,,,0.00,114,Wunderground v.1.15,2013-08-29 12:20:00,
2013-08-29 07:25:00,63.8,62.9,30.05,ENE,67,0.0,0.0,97,0.00,,,0.00,130,Wunderground v.1.15,2013-08-29 12:25:00,
2013-08-29 07:30:00,64.2,63.3,30.05,ENE,67,0.0,0.0,97,0.00,,,0.00,148,Wunderground v.1.15,2013-08-29 12:30:00,
2013-08-29 07:35:00,64.8,63.9,30.05,ENE,67,0.0,0.0,97,0.00,,,0.00,158,Wunderground v.1.15,2013-08-29 12:35:00,
2013-08-29 07:40:00,65.3,64.4,30.05,ENE,67,0.0,0.0,97,0.00,,,0.00,178,Wunderground v.1.15,2013-08-29 12:40:00,
2013-08-29 07:46:00,66.0,65.4,30.05,ENE,67,0.0,0.0,98,0.00,,,0.00,193,Wunderground v.1.15,2013-08-29 12:46:00,
2013-08-29 07:51:00,66.6,66.0,30.06,ENE,67,0.0,0.0,98,0.00,,,0.00,204,Wunderground v.1.15,2013-08-29 12:51:00,
2013-08-29 07:56:00,67.1,66.5,30.05,ENE,67,0.0,0.0,98,0.00,,,0.00,216,Wunderground v.1.15,2013-08-29 12:56:00,
2013-08-29 08:01:00,67.6,67.0,30.05,ENE,67,0.0,0.0,98,0.00,,,0.00,232,Wunderground v.1.15,2013-08-29 13:01:00,
2013-08-29 08:06:00,68.0,67.4,30.05,ENE,67,0.0,0.0,98,0.00,,,0.00,248,Wunderground v.1.15,2013-08-29 13:06:00,
2013-08-29 08:11:00,68.4,67.5,30.05,ENE,67,0.0,0.0,97,0.00,,,0.00,264,Wunderground v.1.15,2013-08-29 13:11:00,
2013-08-29 08:16:00,68.7,67.8,30.05,ENE,67,0.0,0.0,97,0.00,,,0.00,279,Wunderground v.1.15,2013-08-29 13:16:00,
2013-08-29 08:21:00,69.1,68.2,30.05,ENE,67,0.0,0.0,97,0.00,,,0.00,294,Wunderground v.1.15,2013-08-29 13:21:00,
2013-08-29 08:26:00,69.4,68.2,30.05,ENE,67,0.0,0.0,96,0.00,,,0.00,308,Wunderground v.1.15,2013-08-29 13:26:00,
2013-08-29 08:31:00,69.7,68.5,30.05,ENE,67,0.0,0.0,96,0.00,,,0.00,327,Wunderground v.1.15,2013-08-29 13:31:00,
2013-08-29 08:36:00,69.9,68.7,30.06,ENE,67,0.0,0.0,96,0.00,,,0.00,345,Wunderground v.1.15,2013-08-29 13:36:00,
2013-08-29 08:41:00,70.4,69.2,30.05,ENE,67,0.0,0.0,96,0.00,,,0.00,366,Wunderground v.1.15,2013-08-29 13:41:00,
2013-08-29 08:46:00,70.7,69.2,30.05,SE,141,1.0,3.0,95,0.00,,,0.00,383,Wunderground v.1.15,2013-08-29 13:46:00,
2013-08-29 08:51:00,71.2,69.4,30.05,SSE,155,0.0,2.0,94,0.00,,,0.00,406,Wunderground v.1.15,2013-08-29 13:51:00,
2013-08-29 08:56:00,71.6,69.8,30.05,SSE,156,0.0,4.0,94,0.00,,,0.00,420,Wunderground v.1.15,2013-08-29 13:56:00,
2013-08-29 09:01:00,72.0,69.9,30.06,SSE,156,0.0,2.0,93,0.00,,,0.00,436,Wunderground v.1.15,2013-08-29 14:01:00,
2013-08-29 09:06:00,72.4,69.9,30.05,SSE,157,3.0,4.0,92,0.00,,,0.00,445,Wunderground v.1.15,2013-08-29 14:06:00,
2013-08-29 09:11:00,72.8,70.0,30.05,SSE,165,4.0,4.0,91,0.00,,,0.00,466,Wunderground v.1.15,2013-08-29 14:11:00,
2013-08-29 09:16:00,73.2,69.8,30.06,SSE,161,2.0,4.0,89,0.00,,,0.00,478,Wunderground v.1.15,2013-08-29 14:16:00,
2013-08-29 09:21:00,73.5,69.7,30.06,SSE,159,3.0,3.0,88,0.00,,,0.00,487,Wunderground v.1.15,2013-08-29 14:21:00,
2013-08-29 09:26:00,73.9,70.1,30.06,SSE,159,2.0,4.0,88,0.00,,,0.00,506,Wunderground v.1.15,2013-08-29 14:26:00,
2013-08-29 09:31:00,74.4,70.3,30.06,South,170,0.0,5.0,87,0.00,,,0.00,519,Wunderground v.1.15,2013-08-29 14:31:00,
2013-08-29 09:36:00,74.9,70.4,30.06,SSE,167,2.0,5.0,86,0.00,,,0.00,534,Wunderground v.1.15,2013-08-29 14:36:00,
2013-08-29 09:41:00,75.3,70.1,30.06,SW,221,0.0,4.0,84,0.00,,,0.00,552,Wunderground v.1.15,2013-08-29 14:41:00,
2013-08-29 09:46:00,75.7,70.5,30.06,South,169,3.0,5.0,84,0.00,,,0.00,566,Wunderground v.1.15,2013-08-29 14:46:00,
2013-08-29 09:51:00,76.0,70.8,30.06,SSE,162,0.0,4.0,84,0.00,,,0.00,580,Wunderground v.1.15,2013-08-29 14:51:00,
2013-08-29 09:56:00,76.4,70.9,30.06,SSE,157,0.0,5.0,83,0.00,,,0.00,592,Wunderground v.1.15,2013-08-29 14:56:00,
2013-08-29 10:01:00,76.5,70.6,30.06,SSE,166,0.0,4.0,82,0.00,,,0.00,601,Wunderground v.1.15,2013-08-29 15:01:00,
2013-08-29 10:06:00,76.6,70.7,30.06,SSE,165,4.0,5.0,82,0.00,,,0.00,613,Wunderground v.1.15,2013-08-29 15:06:00,
2013-08-29 10:11:00,76.7,70.8,30.06,SSE,167,0.0,1.0,82,0.00,,,0.00,626,Wunderground v.1.15,2013-08-29 15:11:00,
2013-08-29 10:16:00,77.0,70.4,30.06,SSE,166,0.0,5.0,80,0.00,,,0.00,638,Wunderground v.1.15,2013-08-29 15:16:00,
2013-08-29 10:21:00,77.4,71.1,30.06,SSE,164,3.0,4.0,81,0.00,,,0.00,649,Wunderground v.1.15,2013-08-29 15:21:00,
2013-08-29 10:26:00,77.7,71.4,30.06,SSE,154,4.0,5.0,81,0.00,,,0.00,657,Wunderground v.1.15,2013-08-29 15:26:00,
2013-08-29 10:31:00,78.0,71.3,30.05,South,169,1.0,5.0,80,0.00,,,0.00,670,Wunderground v.1.15,2013-08-29 15:31:00,
2013-08-29 10:36:00,78.3,71.2,30.05,SE,141,4.0,5.0,79,0.00,,,0.00,679,Wunderground v.1.15,2013-08-29 15:36:00,
2013-08-29 10:41:00,78.7,72.4,30.05,SSE,168,2.0,4.0,81,0.00,,,0.00,687,Wunderground v.1.15,2013-08-29 15:41:00,
2013-08-29 10:46:00,78.9,71.8,30.05,SSE,161,4.0,6.0,79,0.00,,,0.00,700,Wunderground v.1.15,2013-08-29 15:46:00,
2013-08-29 10:51:00,79.1,72.0,30.05,SSE,165,1.0,4.0,79,0.00,,,0.00,708,Wunderground v.1.15,2013-08-29 15:51:00,
2013-08-29 10:56:00,79.5,72.4,30.05,SSE,161,0.0,4.0,79,0.00,,,0.00,715,Wunderground v.1.15,2013-08-29 15:56:00,
2013-08-29 11:01:00,79.9,72.0,30.05,SE,143,4.0,5.0,77,0.00,,,0.00,726,Wunderground v.1.15,2013-08-29 16:01:00,
2013-08-29 11:06:00,80.0,72.9,30.05,SSW,204,0.0,7.0,79,0.00,,,0.00,733,Wunderground v.1.15,2013-08-29 16:06:00,
2013-08-29 11:11:00,80.3,72.4,30.05,SSE,155,3.0,7.0,77,0.00,,,0.00,765,Wunderground v.1.15,2013-08-29 16:11:00,
2013-08-29 11:17:00,80.5,72.6,30.05,SSW,198,4.0,7.0,77,0.00,,,0.00,802,Wunderground v.1.15,2013-08-29 16:17:00,
2013-08-29 11:22:00,80.9,73.0,30.05,SSW,204,0.0,5.0,77,0.00,,,0.00,710,Wunderground v.1.15,2013-08-29 16:22:00,
2013-08-29 11:27:00,81.0,72.7,30.05,SSE,167,5.0,6.0,76,0.00,,,0.00,457,Wunderground v.1.15,2013-08-29 16:27:00,
2013-08-29 11:32:00,80.7,72.0,30.05,SSE,163,5.0,5.0,75,0.00,,,0.00,436,Wunderground v.1.15,2013-08-29 16:32:00,
2013-08-29 11:37:00,80.5,72.2,30.05,South,175,0.0,7.0,76,0.00,,,0.00,533,Wunderground v.1.15,2013-08-29 16:37:00,
2013-08-29 11:42:00,80.9,72.6,30.05,SE,142,5.0,5.0,76,0.00,,,0.00,763,Wunderground v.1.15,2013-08-29 16:42:00,
2013-08-29 11:47:00,81.2,72.1,30.05,SSE,167,2.0,6.0,74,0.00,,,0.00,740,Wunderground v.1.15,2013-08-29 16:47:00,
2013-08-29 11:52:00,81.4,72.7,30.05,South,183,0.0,4.0,75,0.00,,,0.00,724,Wunderground v.1.15,2013-08-29 16:52:00,
2013-08-29 11:57:00,81.7,73.0,30.05,SSE,165,6.0,7.0,75,0.00,,,0.00,830,Wunderground v.1.15,2013-08-29 16:57:00,
2013-08-29 12:02:00,81.6,71.7,30.05,South,173,2.0,9.0,72,0.00,,,0.00,819,Wunderground v.1.15,2013-08-29 17:02:00,
2013-08-29 12:07:00,81.7,72.6,30.04,South,170,3.0,9.0,74,0.00,,,0.00,789,Wunderground v.1.15,2013-08-29 17:07:00,
2013-08-29 12:12:00,81.9,72.8,30.04,South,174,2.0,7.0,74,0.00,,,0.00,809,Wunderground v.1.15,2013-08-29 17:12:00,
2013-08-29 12:17:00,82.1,72.6,30.04,SE,142,3.0,7.0,73,0.00,,,0.00,817,Wunderground v.1.15,2013-08-29 17:17:00,
2013-08-29 12:22:00,82.2,72.3,30.04,SSE,157,0.0,7.0,72,0.00,,,0.00,830,Wunderground v.1.15,2013-08-29 17:22:00,
2013-08-29 12:27:00,82.3,72.0,30.04,SSE,166,2.0,8.0,71,0.00,,,0.00,791,Wunderground v.1.15,2013-08-29 17:27:00,
2013-08-29 12:32:00,82.3,72.0,30.04,SSE,165,4.0,7.0,71,0.00,,,0.00,654,Wunderground v.1.15,2013-08-29 17:32:00,
2013-08-29 12:37:00,82.5,72.1,30.04,SSE,150,4.0,7.0,71,0.00,,,0.00,842,Wunderground v.1.15,2013-08-29 17:37:00,
2013-08-29 12:42:00,82.6,72.7,30.03,SE,146,1.0,6.0,72,0.00,,,0.00,844,Wunderground v.1.15,2013-08-29 17:42:00,
2013-08-29 12:47:00,82.8,72.0,30.03,South,175,5.0,8.0,70,0.00,,,0.00,809,Wunderground v.1.15,2013-08-29 17:47:00,
2013-08-29 12:52:00,82.9,72.1,30.03,SE,138,0.0,7.0,70,0.00,,,0.00,821,Wunderground v.1.15,2013-08-29 17:52:00,
2013-08-29 12:57:00,82.9,71.7,30.02,SW,233,3.0,8.0,69,0.00,,,0.00,821,Wunderground v.1.15,2013-08-29 17:57:00,
2013-08-29 13:02:00,83.0,72.6,30.02,SSE,164,2.0,6.0,71,0.00,,,0.00,823,Wunderground v.1.15,2013-08-29 18:02:00,
2013-08-29 13:07:00,83.1,72.3,30.02,SSE,164,0.0,7.0,70,0.00,,,0.00,830,Wunderground v.1.15,2013-08-29 18:07:00,
2013-08-29 13:12:00,83.2,72.0,30.03,South,169,7.0,9.0,69,0.00,,,0.00,854,Wunderground v.1.15,2013-08-29 18:12:00,
2013-08-29 13:17:00,83.1,73.1,30.02,WSW,246,0.0,9.0,72,0.00,,,0.00,858,Wunderground v.1.15,2013-08-29 18:17:00,
2013-08-29 13:22:00,83.3,72.5,30.02,SSE,165,5.0,7.0,70,0.00,,,0.00,828,Wunderground v.1.15,2013-08-29 18:22:00,
2013-08-29 13:27:00,83.4,71.7,30.02,SE,141,1.0,8.0,68,0.00,,,0.00,819,Wunderground v.1.15,2013-08-29 18:27:00,
2013-08-29 13:32:00,83.5,70.9,30.02,SSW,211,0.0,9.0,66,0.00,,,0.00,812,Wunderground v.1.15,2013-08-29 18:32:00,
2013-08-29 13:37:00,83.6,70.6,30.01,SSE,152,6.0,9.0,65,0.00,,,0.00,809,Wunderground v.1.15,2013-08-29 18:37:00,
2013-08-29 13:42:00,83.6,70.6,30.02,South,175,6.0,7.0,65,0.00,,,0.00,807,Wunderground v.1.15,2013-08-29 18:42:00,
2013-08-29 13:47:00,83.7,69.8,30.01,SSE,151,7.0,8.0,63,0.00,,,0.00,798,Wunderground v.1.15,2013-08-29 18:47:00,
2013-08-29 13:52:00,83.7,69.3,30.01,SSE,151,2.0,7.0,62,0.00,,,0.00,798,Wunderground v.1.15,2013-08-29 18:52:00,
2013-08-29 13:57:00,83.8,68.9,30.01,SSE,163,7.0,10.0,61,0.00,,,0.00,793,Wunderground v.1.15,2013-08-29 18:57:00,
2013-08-29 14:02:00,83.7,69.3,30.01,South,175,5.0,9.0,62,0.00,,,0.00,786,Wunderground v.1.15,2013-08-29 19:02:00,
2013-08-29 14:07:00,83.8,68.4,30.00,SSW,213,2.0,9.0,60,0.00,,,0.00,779,Wunderground v.1.15,2013-08-29 19:07:00,
2013-08-29 14:12:00,83.9,69.0,30.00,SSE,159,2.0,7.0,61,0.00,,,0.00,795,Wunderground v.1.15,2013-08-29 19:12:00,
2013-08-29 14:17:00,83.9,68.5,30.00,SSE,159,5.0,8.0,60,0.00,,,0.00,729,Wunderground v.1.15,2013-08-29 19:17:00,
2013-08-29 14:22:00,84.1,69.2,30.00,SSE,150,5.0,7.0,61,0.00,,,0.00,705,Wunderground v.1.15,2013-08-29 19:22:00,
2013-08-29 14:27:00,84.1,69.7,30.00,South,169,3.0,7.0,62,0.00,,,0.00,810,Wunderground v.1.15,2013-08-29 19:27:00,
2013-08-29 14:32:00,84.2,69.8,30.00,SSE,157,2.0,5.0,62,0.00,,,0.00,754,Wunderground v.1.15,2013-08-29 19:32:00,
2013-08-29 14:37:00,84.3,68.9,29.99,South,178,2.0,7.0,60,0.00,,,0.00,737,Wunderground v.1.15,2013-08-29 19:37:00,
2013-08-29 14:42:00,84.4,69.0,29.99,SSE,161,6.0,8.0,60,0.00,,,0.00,726,Wunderground v.1.15,2013-08-29 19:42:00,
2013-08-29 14:47:00,84.3,68.9,29.99,SSE,167,3.0,8.0,60,0.00,,,0.00,717,Wunderground v.1.15,2013-08-29 19:47:00,
2013-08-29 14:52:00,84.3,68.9,29.99,SSE,157,5.0,8.0,60,0.00,,,0.00,708,Wunderground v.1.15,2013-08-29 19:52:00,
2013-08-29 14:57:00,84.2,68.8,29.99,SSE,168,6.0,12.0,60,0.00,,,0.00,700,Wunderground v.1.15,2013-08-29 19:57:00,
2013-08-29 15:03:00,84.1,68.7,29.98,South,182,6.0,8.0,60,0.00,,,0.00,689,Wunderground v.1.15,2013-08-29 20:03:00,
2013-08-29 15:07:00,84.1,68.2,29.98,SSE,155,5.0,9.0,59,0.00,,,0.00,679,Wunderground v.1.15,2013-08-29 20:07:00,
2013-08-29 15:12:00,84.1,68.2,29.98,SSE,165,4.0,10.0,59,0.00,,,0.00,671,Wunderground v.1.15,2013-08-29 20:12:00,
2013-08-29 15:17:00,84.2,69.3,29.98,SSE,152,3.0,10.0,61,0.00,,,0.00,661,Wunderground v.1.15,2013-08-29 20:17:00,
2013-08-29 15:22:00,84.4,70.0,29.98,South,169,3.0,5.0,62,0.00,,,0.00,654,Wunderground v.1.15,2013-08-29 20:22:00,
2013-08-29 15:27:00,84.6,69.2,29.99,South,170,4.0,8.0,60,0.00,,,0.00,650,Wunderground v.1.15,2013-08-29 20:27:00,
2013-08-29 15:32:00,84.6,69.2,29.98,SSE,167,3.0,7.0,60,0.00,,,0.00,624,Wunderground v.1.15,2013-08-29 20:32:00,
2013-08-29 15:37:00,84.6,70.1,29.98,SSE,156,0.0,7.0,62,0.00,,,0.00,617,Wunderground v.1.15,2013-08-29 20:37:00,
2013-08-29 15:42:00,84.7,70.2,29.98,SSE,163,1.0,5.0,62,0.00,,,0.00,615,Wunderground v.1.15,2013-08-29 20:42:00,
2013-08-29 15:47:00,84.7,69.8,29.98,SSE,150,6.0,8.0,61,0.00,,,0.00,594,Wunderground v.1.15,2013-08-29 20:47:00,
2013-08-29 15:53:00,84.7,69.8,29.98,SSE,151,5.0,6.0,61,0.00,,,0.00,582,Wunderground v.1.15,2013-08-29 20:53:00,
2013-08-29 15:58:00,84.6,69.7,29.97,SSE,165,2.0,8.0,61,0.00,,,0.00,570,Wunderground v.1.15,2013-08-29 20:58:00,
2013-08-29 16:03:00,84.7,69.8,29.98,SSE,159,4.0,7.0,61,0.00,,,0.00,557,Wunderground v.1.15,2013-08-29 21:03:00,
2013-08-29 16:08:00,84.5,69.6,29.97,South,170,3.0,9.0,61,0.00,,,0.00,540,Wunderground v.1.15,2013-08-29 21:08:00,
2013-08-29 16:13:00,84.4,70.0,29.97,South,182,1.0,4.0,62,0.00,,,0.00,524,Wunderground v.1.15,2013-08-29 21:13:00,
2013-08-29 16:18:00,84.4,70.4,29.98,South,185,2.0,6.0,63,0.00,,,0.00,510,Wunderground v.1.15,2013-08-29 21:18:00,
2013-08-29 16:23:00,84.5,70.0,29.98,SSE,155,6.0,6.0,62,0.00,,,0.00,499,Wunderground v.1.15,2013-08-29 21:23:00,
2013-08-29 16:28:00,84.5,70.0,29.97,South,170,2.0,6.0,62,0.00,,,0.00,487,Wunderground v.1.15,2013-08-29 21:28:00,
2013-08-29 16:33:00,84.6,70.1,29.97,SSE,164,0.0,3.0,62,0.00,,,0.00,471,Wunderground v.1.15,2013-08-29 21:33:00,
2013-08-29 16:38:00,84.5,69.6,29.97,SSE,158,4.0,7.0,61,0.00,,,0.00,457,Wunderground v.1.15,2013-08-29 21:38:00,
2013-08-29 16:43:00,84.5,70.0,29.97,South,172,5.0,6.0,62,0.00,,,0.00,441,Wunderground v.1.15,2013-08-29 21:43:00,
2013-08-29 16:48:00,84.5,70.0,29.97,SSE,165,0.0,6.0,62,0.00,,,0.00,427,Wunderground v.1.15,2013-08-29 21:48:00,
2013-08-29 16:53:00,84.5,70.5,29.97,SSE,148,5.0,6.0,63,0.00,,,0.00,415,Wunderground v.1.15,2013-08-29 21:53:00,
2013-08-29 16:58:00,84.3,70.3,29.96,SSE,155,3.0,7.0,63,0.00,,,0.00,403,Wunderground v.1.15,2013-08-29 21:58:00,
2013-08-29 17:03:00,84.3,69.9,29.97,SSE,148,5.0,6.0,62,0.00,,,0.00,388,Wunderground v.1.15,2013-08-29 22:03:00,
2013-08-29 17:08:00,84.3,71.2,29.97,SSW,192,0.0,6.0,65,0.00,,,0.00,371,Wunderground v.1.15,2013-08-29 22:08:00,
2013-08-29 17:13:00,84.2,70.2,29.96,SE,142,5.0,6.0,63,0.00,,,0.00,359,Wunderground v.1.15,2013-08-29 22:13:00,
2013-08-29 17:18:00,84.1,70.1,29.96,SSE,161,3.0,6.0,63,0.00,,,0.00,343,Wunderground v.1.15,2013-08-29 22:18:00,
2013-08-29 17:23:00,84.1,70.6,29.96,South,171,3.0,6.0,64,0.00,,,0.00,325,Wunderground v.1.15,2013-08-29 22:23:00,
2013-08-29 17:28:00,84.0,70.5,29.96,SSE,160,3.0,6.0,64,0.00,,,0.00,311,Wunderground v.1.15,2013-08-29 22:28:00,
2013-08-29 17:33:00,83.8,70.3,29.96,SSE,161,1.0,7.0,64,0.00,,,0.00,294,Wunderground v.1.15,2013-08-29 22:33:00,
2013-08-29 17:38:00,83.7,70.7,29.95,SSE,167,0.0,7.0,65,0.00,,,0.00,279,Wunderground v.1.15,2013-08-29 22:38:00,
2013-08-29 17:43:00,83.5,70.9,29.95,South,169,1.0,8.0,66,0.00,,,0.00,264,Wunderground v.1.15,2013-08-29 22:43:00,
2013-08-29 17:48:00,83.3,71.2,29.95,SSE,166,0.0,8.0,67,0.00,,,0.00,251,Wunderground v.1.15,2013-08-29 22:48:00,
2013-08-29 17:53:00,83.1,71.0,29.95,South,177,3.0,4.0,67,0.00,,,0.00,237,Wunderground v.1.15,2013-08-29 22:53:00,
2013-08-29 17:58:00,83.0,70.9,29.95,South,172,0.0,6.0,67,0.00,,,0.00,220,Wunderground v.1.15,2013-08-29 22:58:00,
2013-08-29 18:03:00,82.9,70.4,29.95,SSW,207,0.0,4.0,66,0.00,,,0.00,53,Wunderground v.1.15,2013-08-29 23:03:00,
2013-08-29 18:08:00,82.8,71.6,29.95,SSW,205,0.0,4.0,69,0.00,,,0.00,49,Wunderground v.1.15,2013-08-29 23:08:00,
2013-08-29 18:13:00,82.6,70.5,29.94,SW,217,0.0,4.0,67,0.00,,,0.00,49,Wunderground v.1.15,2013-08-29 23:13:00,
2013-08-29 18:18:00,82.4,70.3,29.94,SW,217,1.0,4.0,67,0.00,,,0.00,46,Wunderground v.1.15,2013-08-29 23:18:00,
2013-08-29 18:23:00,82.3,69.8,29.94,SSW,194,0.0,1.0,66,0.00,,,0.00,44,Wunderground v.1.15,2013-08-29 23:23:00,
2013-08-29 18:28:00,82.2,69.7,29.95,WNW,287,2.0,3.0,66,0.00,,,0.00,46,Wunderground v.1.15,2013-08-29 23:28:00,
2013-08-29 18:33:00,82.2,69.3,29.94,South,183,1.0,3.0,65,0.00,,,0.00,40,Wunderground v.1.15,2013-08-29 23:33:00,
2013-08-29 18:39:00,82.1,69.6,29.94,SSW,204,0.0,4.0,66,0.00,,,0.00,39,Wunderground v.1.15,2013-08-29 23:39:00,
2013-08-29 18:44:00,81.9,69.4,29.94,SSE,147,1.0,3.0,66,0.00,,,0.00,35,Wunderground v.1.15,2013-08-29 23:44:00,
2013-08-29 18:49:00,81.7,69.2,29.94,SSE,167,0.0,3.0,66,0.00,,,0.00,33,Wunderground v.1.15,2013-08-29 23:49:00,
2013-08-29 18:54:00,81.5,69.5,29.94,SSE,167,0.0,1.0,67,0.00,,,0.00,32,Wunderground v.1.15,2013-08-29 23:54:00,
2013-08-29 18:59:00,81.3,69.7,29.94,SSE,167,0.0,3.0,68,0.00,,,0.00,28,Wunderground v.1.15,2013-08-29 23:59:00,
2013-08-29 19:04:00,81.1,70.0,29.94,SSE,167,0.0,3.0,69,0.00,,,0.00,26,Wunderground v.1.15,2013-08-30 00:04:00,
2013-08-29 19:09:00,80.9,70.2,29.94,SSE,167,0.0,3.0,70,0.00,,,0.00,23,Wunderground v.1.15,2013-08-30 00:09:00,
2013-08-29 19:14:00,80.7,70.0,29.94,South,171,0.0,2.0,70,0.00,,,0.00,19,Wunderground v.1.15,2013-08-30 00:14:00,
2013-08-29 19:19:00,80.5,69.8,29.94,South,171,0.0,2.0,70,0.00,,,0.00,16,Wunderground v.1.15,2013-08-30 00:19:00,
2013-08-29 19:24:00,80.2,69.5,29.94,South,176,0.0,3.0,70,0.00,,,0.00,12,Wunderground v.1.15,2013-08-30 00:24:00,
2013-08-29 19:29:00,79.9,69.2,29.94,South,176,0.0,3.0,70,0.00,,,0.00,9,Wunderground v.1.15,2013-08-30 00:29:00,
2013-08-29 19:34:00,79.7,69.5,29.94,South,176,0.0,1.0,71,0.00,,,0.00,5,Wunderground v.1.15,2013-08-30 00:34:00,
2013-08-29 19:39:00,79.5,69.7,29.94,South,176,0.0,1.0,72,0.00,,,0.00,0,Wunderground v.1.15,2013-08-30 00:39:00,
2013-08-29 19:44:00,79.2,69.4,29.94,South,176,0.0,0.0,72,0.00,,,0.00,0,Wunderground v.1.15,2013-08-30 00:44:00,
2013-08-29 19:49:00,78.9,69.1,29.94,South,176,0.0,0.0,72,0.00,,,0.00,0,Wunderground v.1.15,2013-08-30 00:49:00,
2013-08-29 19:54:00,78.6,69.2,29.94,South,176,0.0,0.0,73,0.00,,,0.00,0,Wunderground v.1.15,2013-08-30 00:54:00,
2013-08-29 19:59:00,78.4,69.0,29.94,South,176,0.0,0.0,73,0.00,,,0.00,0,Wunderground v.1.15,2013-08-30 00:59:00,
2013-08-29 20:04:00,78.2,69.2,29.94,South,170,0.0,0.0,74,0.00,,,0.00,0,Wunderground v.1.15,2013-08-30 01:04:00,
2013-08-29 20:09:00,78.0,68.6,29.94,South,188,0.0,0.0,73,0.00,,,0.00,0,Wunderground v.1.15,2013-08-30 01:09:00,
2013-08-29 20:14:00,78.1,68.7,29.94,South,176,2.0,5.0,73,0.00,,,0.00,0,Wunderground v.1.15,2013-08-30 01:14:00,
2013-08-29 20:19:00,78.2,68.8,29.94,SSE,162,1.0,6.0,73,0.00,,,0.00,0,Wunderground v.1.15,2013-08-30 01:19:00,
2013-08-29 20:24:00,78.3,68.9,29.94,SSE,163,0.0,2.0,73,0.00,,,0.00,0,Wunderground v.1.15,2013-08-30 01:24:00,
2013-08-29 20:29:00,78.3,68.9,29.94,SSE,163,0.0,2.0,73,0.00,,,0.00,0,Wunderground v.1.15,2013-08-30 01:29:00,
2013-08-29 20:34:00,78.2,68.8,29.94,SSE,152,0.0,2.0,73,0.00,,,0.00,0,Wunderground v.1.15,2013-08-30 01:34:00,
2013-08-29 20:39:00,78.1,68.7,29.94,SSW,207,0.0,3.0,73,0.00,,,0.00,0,Wunderground v.1.15,2013-08-30 01:39:00,
2013-08-29 20:44:00,78.0,68.2,29.94,SW,223,2.0,4.0,72,0.00,,,0.00,0,Wunderground v.1.15,2013-08-30 01:44:00,
2013-08-29 20:49:00,78.1,68.3,29.94,WSW,238,1.0,4.0,72,0.00,,,0.00,0,Wunderground v.1.15,2013-08-30 01:49:00,
2013-08-29 20:54:00,78.1,68.7,29.94,SW,221,1.0,2.0,73,0.00,,,0.00,0,Wunderground v.1.15,2013-08-30 01:54:00,
2013-08-29 20:59:00,78.0,68.6,29.94,South,178,0.0,4.0,73,0.00,,,0.00,0,Wunderground v.1.15,2013-08-30 01:59:00,
2013-08-29 21:04:00,78.0,69.0,29.95,WSW,243,0.0,4.0,74,0.00,,,0.00,0,Wunderground v.1.15,2013-08-30 02:04:00,
2013-08-29 21:09:00,78.0,69.0,29.95,WSW,255,0.0,4.0,74,0.00,,,0.00,0,Wunderground v.1.15,2013-08-30 02:09:00,
2013-08-29 21:14:00,77.9,68.9,29.95,SW,231,0.0,1.0,74,0.00,,,0.00,0,Wunderground v.1.15,2013-08-30 02:14:00,
2013-08-29 21:19:00,77.9,68.9,29.94,South,174,0.0,2.0,74,0.00,,,0.00,0,Wunderground v.1.15,2013-08-30 02:19:00,
2013-08-29 21:24:00,77.8,69.2,29.94,South,174,0.0,1.0,75,0.00,,,0.00,0,Wunderground v.1.15,2013-08-30 02:24:00,
2013-08-29 21:29:00,77.7,69.1,29.94,South,174,0.0,1.0,75,0.00,,,0.00,0,Wunderground v.1.15,2013-08-30 02:29:00,
2013-08-29 21:34:00,77.5,68.9,29.95,SW,229,0.0,0.0,75,0.00,,,0.00,0,Wunderground v.1.15,2013-08-30 02:34:00,
2013-08-29 21:39:00,77.3,68.8,29.95,WSW,238,0.0,2.0,75,0.00,,,0.00,0,Wunderground v.1.15,2013-08-30 02:39:00,
2013-08-29 21:44:00,77.2,68.7,29.94,WSW,238,0.0,1.0,75,0.00,,,0.00,0,Wunderground v.1.15,2013-08-30 02:44:00,
2013-08-29 21:49:00,77.2,69.0,29.95,WSW,238,0.0,1.0,76,0.00,,,0.00,0,Wunderground v.1.15,2013-08-30 02:49:00,
2013-08-29 21:54:00,77.1,68.9,29.94,WSW,238,0.0,1.0,76,0.00,,,0.00,0,Wunderground v.1.15,2013-08-30 02:54:00,
2013-08-29 21:59:00,77.0,68.9,29.94,SW,232,0.0,1.0,76,0.00,,,0.00,0,Wunderground v.1.15,2013-08-30 02:59:00,
2013-08-29 22:04:00,77.0,69.2,29.94,SW,232,0.0,0.0,77,0.00,,,0.00,0,Wunderground v.1.15,2013-08-30 03:04:00,
2013-08-29 22:09:00,76.8,69.0,29.94,SW,232,0.0,2.0,77,0.00,,,0.00,0,Wunderground v.1.15,2013-08-30 03:09:00,
2013-08-29 22:14:00,76.7,69.3,29.94,SW,232,0.0,1.0,78,0.00,,,0.00,0,Wunderground v.1.15,2013-08-30 03:14:00,
2013-08-29 22:19:00,76.6,69.2,29.94,SW,232,0.0,2.0,78,0.00,,,0.00,0,Wunderground v.1.15,2013-08-30 03:19:00,
2013-08-29 22:24:00,76.4,69.4,29.94,SW,232,0.0,0.0,79,0.00,,,0.00,0,Wunderground v.1.15,2013-08-30 03:24:00,
2013-08-29 22:29:00,76.3,69.3,29.94,SW,232,0.0,1.0,79,0.00,,,0.00,0,Wunderground v.1.15,2013-08-30 03:29:00,
2013-08-29 22:34:00,76.1,69.1,29.93,SW,232,0.0,1.0,79,0.00,,,0.00,0,Wunderground v.1.15,2013-08-30 03:34:00,
2013-08-29 22:39:00,76.0,69.4,29.94,SW,232,0.0,3.0,80,0.00,,,0.00,0,Wunderground v.1.15,2013-08-30 03:39:00,
2013-08-29 22:45:00,75.9,69.3,29.94,SW,232,0.0,1.0,80,0.00,,,0.00,0,Wunderground v.1.15,2013-08-30 03:45:00,
2013-08-29 22:50:00,75.8,69.2,29.93,SW,232,0.0,0.0,80,0.00,,,0.00,0,Wunderground v.1.15,2013-08-30 03:50:00,
2013-08-29 22:55:00,75.7,69.1,29.94,SW,232,1.0,1.0,80,0.00,,,0.00,0,Wunderground v.1.15,2013-08-30 03:55:00,
2013-08-29 23:00:00,75.7,69.1,29.93,SW,232,1.0,1.0,80,0.00,,,0.00,0,Wunderground v.1.15,2013-08-30 04:00:00,
2013-08-29 23:01:00,75.7,69.1,29.93,SW,235,0.0,4.0,80,0.00,,,0.00,0,Wunderground v.1.15,2013-08-30 04:01:00,
2013-08-29 23:06:00,75.7,69.1,29.93,SW,235,0.0,4.0,80,0.00,,,0.00,0,Wunderground v.1.15,2013-08-30 04:06:00,
2013-08-29 23:11:00,75.8,69.2,29.94,SW,235,0.0,1.0,80,0.00,,,0.00,0,Wunderground v.1.15,2013-08-30 04:11:00,
2013-08-29 23:16:00,75.8,69.2,29.94,SW,235,0.0,1.0,80,0.00,,,0.00,0,Wunderground v.1.15,2013-08-30 04:16:00,
2013-08-29 23:21:00,75.7,69.5,29.94,SW,235,0.0,0.0,81,0.00,,,0.00,0,Wunderground v.1.15,2013-08-30 04:21:00,
2013-08-29 23:26:00,75.6,69.4,29.94,SW,235,0.0,0.0,81,0.00,,,0.00,0,Wunderground v.1.15,2013-08-30 04:26:00,
2013-08-29 23:31:00,75.6,69.7,29.93,SW,235,0.0,1.0,82,0.00,,,0.00,0,Wunderground v.1.15,2013-08-30 04:31:00,
2013-08-29 23:36:00,75.6,69.7,29.93,WSW,241,0.0,2.0,82,0.00,,,0.00,0,Wunderground v.1.15,2013-08-30 04:36:00,
2013-08-29 23:41:00,75.7,69.8,29.93,SW,222,1.0,3.0,82,0.00,,,0.00,0,Wunderground v.1.15,2013-08-30 04:41:00,
2013-08-29 23:46:00,75.8,69.9,29.93,SW,221,0.0,3.0,82,0.00,,,0.00,0,Wunderground v.1.15,2013-08-30 04:46:00,
2013-08-29 23:51:00,75.9,70.0,29.93,SW,221,0.0,0.0,82,0.00,,,0.00,0,Wunderground v.1.15,2013-08-30 04:51:00,
2013-08-29 23:56:00,76.0,70.1,29.93,SSE,163,0.0,6.0,82,0.00,,,0.00,0,Wunderground v.1.15,2013-08-30 04:56:00,